DECAYED

CZ-6A DEB, 61844 (Decayed)

Orbit data source: Space-Track

CZ-6A DEB, 61844 was space debris in LEO originally from a launch on Tue, 06 Aug 2024 UTC launched from the Taiyaun Space Center, China (TSC). Debris objects in space refer to the collection of defunct objects orbiting the Earth. Examples of debris include non-operational satellites, rocket bodies, and fragments generated from explosions, collisions, or faulty payload assembly.

Not visible in the next 10 days
Identifier
61844, 2024-140ADL
Orbit
Decayed
Country
Flag of CNCN / PRC
Related business
Manufacturer
SAST
Mission
Decayed spacecraft
Bus & Motor
Unknown
Mass
Unknown
Launch date (UTC)
2024-08-06 (2 years ago)
Launch vehicle
Unknown
Launch site
Taiyaun Space Center, China (TSC)
Object type
Payload
Rocket body
Debris
Shape & HBR
Unknown shape, 1.1 m
Radar Cross Section
Medium (>0.1 m² and <1 m²)

Expand to show TLE details & history
Last TLE update: 1 year ago

TLE from 1 year ago
0 CZ-6A DEB
1 61844U 24140ADL 25046.76676843  .09622810  20573+0  41500-1 0  9993
2 61844  89.2435 333.2672 0021080  98.2724 262.0952 15.92225175 19831
Epoch: 2025-02-15T18:24Z
TLE epoch observation values (Epoch: 2025-02-15T18:24:08.792Z)
Latitude
-0.00004°
Longitude
-88.7789°
Altitude
301.318 km
Speed
7.726 km/s
True Right ascension
22h 13m 04s
True Declination
0° 00' 00"
Sunlit
Object was in daylight at epoch
Visualization orbit readout
Latitude
Unknown
Longitude
Unknown
Altitude
Unknown
Speed
Unknown
Apparent Right ascension
Unknown
Apparent Declination
Unknown
Sunlit
N/A
Visualization observer readout
Local Sidereal Time
07:19:09
Azimuth
Unknown
Elevation
Unknown
Doppler factor
Unknown
Orbital elements
Apogee altitude
306.827 km
Perigee altitude
278.703 km
Semi-major axis
6,670.902 km
Eccentricity
0.00211
Inclination
89.2435°
RAAN
333.2672°
Arg. of periapsis
98.2724°
True anomaly
261.85602°
Mean anomaly
262.0952°
Eccentric anomaly
261.9756°
Mean motion
3.98351 °/min
Orbital period
90.37 mins
BSTAR
0.0415
Loading maneuver chart data...
Computing Atmospheric mass density...
Loading historical data...
Loading historical data...
Loading historical data...
Loading historical data...
Loading historical data...
Loading historical data...
Loading historical data...

Documentation

Showing up to 5 results
|